sat.trackr.live / text

‹ back to catalog

STARLINK-1569

NORAD 46039 · 2020-055N

PAYLOAD ACTIVE UNKNOWN

§ Identity

Operator
Country
US
Launch date
2020-08-07
Launch site
AFETR
Launch vehicle
Mass (kg)
RCS (m²)

Purposes: comms

External: N2YO · Heavens-Above · Gunter

§ Orbital elements

Epoch: 2026-09-09T23:48:56.676960Z

Period
94.01 min
Inclination
53.1649°
Eccentricity
0.0001174
Mean motion
15.31707263 rev/d
Perigee alt
469.9 km
Apogee alt
471.5 km
Semi-major
6,848.9 km
B*
-8.5514e-6
RAAN
349.7216°
Arg perigee
89.7886°
Mean anomaly
270.3250°
Rev number
33,711

§ Raw data

STARLINK-15691 46039U 20055N   26252.99232265 -.00000630  00000+0 -85514-5 0  99972 46039  53.1649 349.7216 0001174  89.7886 270.3250 15.31707263337112

JSON: /api/v1/satellites/46039 · /tle

For live sub-satellite position, see the globe view (requires WebGL).

§ Visibility from observer

Set your observer location to see the next 7 days of passes ≥ 10°. The values pass through the URL so the page stays shareable.

No JS? Fill the form by hand. The geolocation button needs JavaScript.